[[{"header":{"parameterUnit":"m.s-1","parameterCategory":1,"la1":30.2991,"la2":30.254,"lo1":-89.0895,"lo2":-89.0444,"dy":0.0017,"dx":0.0017,"nx":28,"ny":28,"refTime":"2024-07-18T09:00:00:Z","depth":0,"parameterNumber":2,"parameterNumberName":"U-component_of_WINDS"},"data":[0,0,0,0,0,0,0,0,0,0,0,0,0,0,0,0,0,0,0,0,0,0,0,0,0,0,0,0,0,0,0,0,0,0,0,0,0,0,0,0,0,0,0,0,0,0,0,0,0,0,0,0,0,0,0,0,0,0,0.2388,0.2388,0,0.2317,0.2316,0.2315,0.23,0.23,0.2301,0.2301,0.2225,0.2222,0.222,0,0,0,0,0,0,0,0,0,0,0,0,0,0.2509,0.2507,0.2389,0.2388,0.2387,0.2317,0.2316,0.2315,0.23,0.23,0.2301,0.2301,0.2226,0.2223,0.222,0,0,0,0,0,0,0,0,0,0,0,0,0,0.2449,0.2506,0.2389,0.2371,0.2368,0.2317,0.2316,0.2314,0.2299,0.23,0.2301,0.2302,0.2227,0.2223,0.2219,0.2179,0,0,0.2207,0.2206,0,0,0,0,0,0,0,0,0.2452,0.2445,0.2374,0.2372,0.2369,0.2318,0.233,0.2269,0.2299,0.2326,0.2301,0.2302,0.2255,0.2249,0.2233,0.2176,0.2173,0.2207,0.2205,0.2203,0.2202,0,0,0,0,0,0,0,0.2457,0.2448,0.236,0.2373,0.237,0.2365,0.2358,0.2319,0.2286,0.2323,0.2322,0.2314,0.2254,0.2237,0.2232,0.2171,0.2207,0.2204,0.2202,0.22,0.2076,0.2075,0,0,0,0,0,0,0.2464,0.2451,0.2362,0.2358,0.2414,0.2362,0.2354,0.2334,0.2287,0.2281,0.2313,0.2313,0.2243,0.2236,0.2229,0.2178,0.2203,0.22,0.2197,0.2077,0.2076,0.2075,0,0,0,0,0,0,0.2467,0.2457,0.2365,0.2404,0.2392,0.2359,0.2337,0.2332,0.2315,0.2279,0.2273,0.2303,0.2244,0.2234,0.2192,0.2175,0.2198,0.2194,0.2078,0.2077,0.2075,0.2078,0,0,0,0,0,0,0.2471,0.2458,0.2443,0.2404,0.239,0.233,0.2336,0.233,0.2309,0.2309,0.2268,0.2262,0.2244,0.2197,0.2188,0.2171,0.2191,0.208,0.2078,0.2076,0.2079,0.2076,0.2074,0,0,0,0,0,0.2475,0.2446,0.2443,0.2432,0.2371,0.2329,0.2321,0.2302,0.2308,0.2292,0.2269,0.2263,0.2179,0.2193,0.2182,0.2164,0.208,0.2078,0.2076,0.208,0.2077,0.2074,0,0,0,0,0,0,0.2484,0.2441,0.2436,0.2394,0.2366,0.2327,0.2307,0.23,0.2268,0.2269,0.2245,0.2236,0.2195,0.2175,0.2192,0.2122,0.213,0.2125,0.2136,0.2133,0.2131,0.2136,0.2188,0,0,0,0,0,0.2481,0.2451,0.2415,0.2382,0.2368,0.234,0.2321,0.2308,0.2277,0.2265,0.2239,0.2208,0.2174,0.2153,0.212,0.2076,0.2066,0.2058,0.2055,0.2054,0.205,0.2023,0.2019,0.2067,0.2067,0.2067,0,0,0.2474,0.2447,0.243,0.2383,0.2359,0.2328,0.233,0.2297,0.2273,0.226,0.2218,0.2197,0.2161,0.2118,0.2097,0.21,0.2034,0.2051,0.205,0.2047,0.2021,0.2016,0.2012,0.2066,0.2066,0.2066,0,0,0.2446,0.2424,0.2393,0.2369,0.2334,0.2315,0.2308,0.227,0.2256,0.2214,0.2203,0.2174,0.2117,0.2092,0.2071,0.2033,0.2026,0.2023,0.2011,0.1985,0.1981,0.1978,0.1963,0.1958,0.2019,0.2019,0.2019,0,0.2443,0.2396,0.2377,0.2345,0.2324,0.2311,0.2278,0.2256,0.2211,0.2197,0.2201,0.2129,0.2104,0.2053,0.2044,0.2028,0.2018,0.2027,0.1984,0.198,0.1976,0.1962,0.1956,0.2019,0.2019,0.2019,0.2019,0,0.2393,0.236,0.234,0.2297,0.2274,0.2242,0.2217,0.2195,0.2184,0.2165,0.2121,0.2091,0.2052,0.2039,0.2028,0.1986,0.1989,0.1989,0.1996,0.1972,0.1958,0.1952,0.2019,0.2019,0.2019,0.2019,0,0,0.2368,0.2316,0.2308,0.2288,0.2248,0.2222,0.2189,0.2151,0.2132,0.2101,0.2072,0.2024,0.2023,0.2,0.1986,0.1964,0.1934,0.1966,0.1965,0.196,0.1884,0.1884,0.1878,0.1929,0.1928,0.1927,0.1887,0,0.2334,0.2275,0.2257,0.2207,0.2176,0.2163,0.2134,0.2105,0.2086,0.2056,0.2035,0.2001,0.2003,0.1989,0.1967,0.1943,0.1918,0.1945,0.19,0.1899,0.1908,0.1871,0.1871,0.1834,0.1881,0.1881,0.188,0,0.2287,0.2256,0.2204,0.2166,0.2153,0.2127,0.209,0.2062,0.2029,0.2016,0.199,0.1978,0.1941,0.1951,0.1899,0.1918,0.1898,0.1883,0.1881,0.1875,0.1887,0.1863,0.1822,0.1816,0.1871,0.1872,0.1873,0,0.2273,0.2218,0.2179,0.2163,0.2119,0.2101,0.2081,0.2049,0.2027,0.1994,0.198,0.1943,0.1923,0.1894,0.1871,0.1881,0.1821,0.1829,0.1808,0.1809,0.1795,0.1796,0.175,0.1785,0.1785,0.1785,0.1785,0,0.2237,0.2205,0.2172,0.2148,0.2111,0.209,0.2054,0.2033,0.2005,0.1975,0.1962,0.1934,0.1907,0.1876,0.1858,0.1817,0.1808,0.1796,0.1791,0.1796,0.1798,0.1782,0.1784,0.1783,0.1784,0.1784,0.1784,0,0.2214,0.2192,0.2148,0.211,0.21,0.2074,0.2041,0.2016,0.1997,0.1959,0.1949,0.1918,0.188,0.1856,0.1807,0.1795,0.175,0.1746,0.1761,0.1759,0.1739,0.174,0.168,0.167,0.1713,0.1712,0.1712,0,0.2192,0.2167,0.2127,0.2107,0.2087,0.2055,0.2033,0.201,0.1987,0.1947,0.1927,0.1888,0.1856,0.1796,0.1768,0.1731,0.1726,0.1707,0.172,0.1725,0.1724,0.1725,0.1722,0.1705,0.1704,0.1704,0.1704,0,0.2155,0.2145,0.2114,0.2078,0.2052,0.2023,0.1994,0.1978,0.195,0.1925,0.1886,0.1861,0.1812,0.1773,0.1733,0.1712,0.1702,0.17,0.1693,0.1697,0.1707,0.17,0.1754,0.1701,0.1702,0.1702,0.1702,0.1702,0.2131,0.2108,0.2076,0.2041,0.2017,0.1989,0.1964,0.1942,0.191,0.1868,0.1857,0.1816,0.1782,0.1728,0.1705,0.1672,0.1674,0.1664,0.1662,0.1659,0.1658,0.1713,0.1665,0.1665,0.1665,0.1665,0.1665,0,0.2092,0.2071,0.2039,0.1999,0.1971,0.1966,0.1933,0.191,0.1875,0.1845,0.1814,0.1769,0.1731,0.17,0.1661,0.164,0.1635,0.163,0.1631,0.1626,0.1659,0.1669,0.1635,0.1635,0.1635,0.1635,0.1635,0.1635,0.2069,0.2029,0.2015,0.1962,0.194,0.1902,0.1883,0.1857,0.1833,0.1783,0.1752,0.1733,0.1702,0.166,0.1625,0.1616,0.1602,0.1598,0.1589,0.1621,0.1624,0.1627,0.1636,0.1596,0.1596,0.1558,0.1558,0.1558]},{"header":{"parameterUnit":"m.s-1","parameterCategory":1,"la1":30.2991,"la2":30.254,"lo1":-89.0895,"lo2":-89.0444,"dy":0.0017,"dx":0.0017,"nx":28,"ny":28,"refTime":"2024-07-18T09:00:00:Z","depth":0,"parameterNumber":3,"parameterNumberName":"V-component_of_WINDS"},"data":[0,0,0,0,0,0,0,0,0,0,0,0,0,0,0,0,0,0,0,0,0,0,0,0,0,0,0,0,0,0,0,0,0,0,0,0,0,0,0,0,0,0,0,0,0,0,0,0,0,0,0,0,0,0,0,0,0,0,3.1826,3.1827,0,3.1864,3.1865,3.1865,3.1806,3.1804,3.1802,3.18,3.1835,3.1838,3.184,0,0,0,0,0,0,0,0,0,0,0,0,0,3.1697,3.1699,3.1826,3.1827,3.1827,3.1864,3.1865,3.1865,3.1806,3.1804,3.1801,3.1799,3.1834,3.1837,3.1841,0,0,0,0,0,0,0,0,0,0,0,0,0,3.1746,3.17,3.1826,3.1802,3.18,3.1864,3.1865,3.1866,3.1807,3.1804,3.1801,3.1798,3.1833,3.1837,3.1841,3.1929,0,0,3.1854,3.1856,0,0,0,0,0,0,0,0,3.1743,3.175,3.1805,3.1804,3.1802,3.1827,3.1832,3.1887,3.1808,3.1804,3.18,3.1796,3.1835,3.1838,3.1852,3.193,3.1932,3.1855,3.1857,3.1859,3.186,0,0,0,0,0,0,0,3.174,3.1748,3.1841,3.1806,3.1804,3.1788,3.1791,3.1842,3.1836,3.1804,3.18,3.1806,3.1833,3.1848,3.1853,3.1932,3.1854,3.1858,3.1861,3.1862,3.2083,3.2086,0,0,0,0,0,0,3.174,3.1746,3.184,3.1842,3.1765,3.1793,3.1797,3.1822,3.1835,3.1834,3.1808,3.1803,3.1843,3.1848,3.1854,3.1956,3.1859,3.1863,3.1865,3.2079,3.2083,3.2087,0,0,0,0,0,0,3.1737,3.1749,3.1838,3.1793,3.1803,3.1798,3.1827,3.1825,3.184,3.1838,3.1836,3.1825,3.184,3.1848,3.191,3.1957,3.1865,3.1869,3.2076,3.2081,3.2085,3.2163,0,0,0,0,0,0,3.1734,3.1748,3.1783,3.1794,3.1806,3.1896,3.183,3.1828,3.1848,3.1841,3.1854,3.1853,3.1839,3.1904,3.1915,3.1961,3.1872,3.2071,3.2078,3.2084,3.2156,3.217,3.2181,0,0,0,0,0,3.1729,3.1802,3.1785,3.1796,3.1849,3.1899,3.1905,3.1889,3.1852,3.1886,3.1884,3.1853,3.195,3.1911,3.1922,3.197,3.2068,3.2076,3.2083,3.215,3.2167,3.2181,0,0,0,0,0,0,3.1795,3.1803,3.1784,3.1863,3.1881,3.1889,3.1931,3.1907,3.1935,3.1927,3.1903,3.1907,3.1974,3.1978,3.1935,3.2055,3.2003,3.2013,3.205,3.2066,3.2078,3.2075,3.1875,0,0,0,0,0,3.1819,3.186,3.1865,3.1934,3.1944,3.1936,3.1957,3.1943,3.196,3.1967,3.197,3.1986,3.202,3.2043,3.2075,3.2156,3.2157,3.2195,3.2207,3.2218,3.2226,3.2269,3.2285,3.2111,3.2111,3.2111,0,0,3.1868,3.1878,3.1905,3.1947,3.1959,3.2001,3.1943,3.199,3.202,3.1973,3.2033,3.2036,3.2053,3.2125,3.2157,3.2131,3.2275,3.2227,3.2236,3.2239,3.2278,3.2294,3.2309,3.2116,3.2116,3.2115,0,0,3.1979,3.1991,3.205,3.2063,3.2083,3.2077,3.2091,3.2103,3.2104,3.2164,3.2129,3.2164,3.2224,3.2236,3.2251,3.2366,3.2338,3.2377,3.2443,3.2485,3.2498,3.251,3.2551,3.2565,3.2386,3.2386,3.2386,0,3.2037,3.21,3.2082,3.2132,3.2151,3.2112,3.217,3.2183,3.2212,3.2225,3.2195,3.2269,3.2277,3.2352,3.238,3.2393,3.2407,3.2375,3.2498,3.251,3.2521,3.2559,3.2574,3.2391,3.239,3.239,3.2389,0,3.217,3.2214,3.2259,3.2289,3.2313,3.2366,3.2355,3.2381,3.2365,3.2361,3.2422,3.2431,3.2463,3.248,3.2463,3.2552,3.2535,3.2502,3.2449,3.2542,3.2578,3.2592,3.2397,3.2396,3.2394,3.2393,0,0,3.2323,3.2343,3.2359,3.2372,3.239,3.2423,3.2474,3.2507,3.2529,3.255,3.2591,3.2642,3.2612,3.2629,3.2613,3.265,3.274,3.2613,3.2613,3.2635,3.2836,3.286,3.2877,3.2721,3.2724,3.2726,3.2834,0,3.2433,3.2523,3.2508,3.2595,3.2634,3.2598,3.2642,3.2657,3.2655,3.2687,3.2685,3.2721,3.2679,3.2689,3.2724,3.2722,3.278,3.2714,3.2758,3.276,3.2754,3.2896,3.2922,3.3024,3.2848,3.2851,3.2852,0,3.2574,3.2601,3.2692,3.2703,3.2719,3.276,3.2788,3.282,3.2835,3.2831,3.285,3.2828,3.2877,3.2824,3.289,3.2845,3.2862,3.2864,3.2868,3.287,3.2811,3.2902,3.3056,3.3071,3.2874,3.2872,3.2871,0,3.2675,3.2734,3.2796,3.2808,3.2823,3.2852,3.286,3.2873,3.2893,3.2917,3.293,3.2959,3.2975,3.2997,3.2983,3.2946,3.3052,3.2997,3.3048,3.3049,3.3072,3.307,3.323,3.3084,3.3084,3.3084,3.3083,0,3.2799,3.2856,3.2842,3.288,3.2942,3.2923,3.2984,3.2987,3.2999,3.3035,3.3005,3.3039,3.3019,3.3051,3.304,3.3096,3.3104,3.3101,3.3097,3.3103,3.3104,3.3114,3.3106,3.3088,3.3087,3.3086,3.3085,0,3.2923,3.2916,3.2981,3.299,3.2994,3.3039,3.3046,3.308,3.3076,3.3123,3.3133,3.3126,3.3163,3.3151,3.319,3.3182,3.3253,3.3241,3.3249,3.3245,3.3297,3.3292,3.3468,3.3489,3.333,3.3332,3.3333,0,3.3003,3.3046,3.306,3.3083,3.3093,3.313,3.3151,3.3134,3.3156,3.3177,3.3209,3.3243,3.327,3.333,3.3327,3.3357,3.3344,3.3404,3.3348,3.3353,3.3344,3.3342,3.3345,3.3415,3.3416,3.3418,3.3419,0,3.3144,3.3138,3.317,3.3201,3.3227,3.325,3.327,3.3291,3.3275,3.3301,3.3339,3.336,3.34,3.3434,3.346,3.3466,3.344,3.3437,3.345,3.3456,3.3459,3.3458,3.3278,3.3433,3.3431,3.343,3.343,3.3429,3.3248,3.3284,3.3299,3.3336,3.3349,3.3369,3.3401,3.3402,3.3433,3.3466,3.3453,3.3496,3.351,3.3543,3.3552,3.3585,3.3561,3.3581,3.3586,3.3591,3.3597,3.3455,3.3589,3.3589,3.3589,3.3588,3.3588,0,3.3387,3.3395,3.3429,3.3458,3.3487,3.3461,3.3481,3.3506,3.3545,3.356,3.3587,3.363,3.3662,3.3663,3.3693,3.3719,3.3707,3.3727,3.3724,3.3726,3.3616,3.3601,3.3736,3.3736,3.3736,3.3736,3.3736,3.3735,3.3462,3.3522,3.3518,3.3583,3.359,3.3634,3.3647,3.3664,3.3677,3.3726,3.3754,3.3754,3.3763,3.3793,3.3821,3.382,3.3832,3.3857,3.3851,3.3749,3.3734,3.372,3.3706,3.386,3.386,3.3958,3.3959,3.396]}]]